Zurück zum Katalog

STARLINK-5412

AktivKommunikationVLEO
NORAD 54806·PAYLOAD·🇺🇸 United States

Gestartet Dec 17, 2022 von Cape Canaveral Space Force Station

Loading…

Nächste Überflüge (nächste 24 Stunden)

TLE

AktuellSource: CelesTrak SupGP

Epoche: Sep 14, 2026, 22:12 UTC

1 54806C 22175BA  26257.92548611  .00025262  00000+0  76651-3 0  2579
2 54806  53.1573 244.0210 0001364  94.1249 170.4847 15.33537296    11

Verfolge STARLINK-5412 in Echtzeit mit AllMySat

Download on the App Store